Temp
10 11 11 11 11 11 11 11 11 11 11 11 11 11 12 12 13 13 14 14 14 14 14 15 15 15 15 15 15 15 16 17 16 16 15 14 13 13 12 13 12 12 10 12 12
11 11 11 11 11 11 11 11 11 11 11 11 11 11 12 12 12 13 14 14 14 14 15 15 15 15 15 15 15 14 16 17 16 16 15 14 13 15 14 13 11 12 12 12 12
11 11 11 11 11 11 11 11 11 11 11 11 11 11 12 12 12 13 13 14 14 14 14 15 15 15 14 14 15 15 16 16 16 15 15 14 13 14 13 12 11 13 12 12 12
11 11 11 11 11 11 11 11 11 12 12 11 11 11 12 12 12 12 13 14 14 14 14 15 15 15 15 15 15 15 16 16 16 15 15 14 14 14 14 13 12 13 12 12 12
10 11 11 11 11 11 11 11 11 11 12 12 12 12 12 12 13 11 13 13 14 14 14 15 15 15 15 16 16 16 16 16 16 15 15 14 14 13 14 15 14 14 13 13 12
10 10 11 11 11 11 11 12 12 12 12 12 12 12 12 13 12 12 13 13 13 14 14 15 15 15 15 15 16 16 16 16 16 15 14 14 14 14 14 15 15 15 14 13 12
10 10 10 11 11 11 11 12 12 12 12 12 12 12 13 12 12 12 12 13 13 13 14 15 15 14 16 15 15 16 16 16 16 16 15 14 13 14 13 14 14 15 14 14 13
10 10 10 10 10 11 11 11 12 12 12 12 12 12 13 13 12 13 13 13 13 13 14 14 14 14 14 15 15 16 16 17 16 15 16 15 16 14 14 14 14 14 14 14 14
10 10 10 10 10 10 10 11 11 12 12 12 12 12 13 13 13 13 13 13 13 13 14 14 13 14 14 15 16 17 18 18 16 15 15 14 16 14 14 14 14 14 14 14 15
11 11 10 10 10 10 10 10 11 11 12 12 12 12 13 12 12 12 12 13 12 12 13 13 13 13 14 16 17 18 18 18 18 16 15 15 16 14 13 13 12 14 14 14 14
10 10 10 10 10 10 10 10 10 11 11 12 11 13 12 12 12 12 12 12 12 12 12 12 13 14 15 16 17 18 18 18 18 17 16 16 16 15 14 13 13 12 13 14 14
10 11 10 10 10 10 10 10 10 10 12 12 12 13 13 12 12 11 11 11 11 12 12 12 13 14 15 16 16 17 18 18 18 16 16 17 16 15 14 14 13 12 12 14 14
9 10 10 9 9 10 10 10 10 10 11 13 13 13 13 13 13 13 11 11 11 12 13 13 14 14 15 16 16 17 18 18 18 16 16 17 16 16 15 14 13 13 13 12 13
9 9 10 9 9 9 9 9 9 9 10 12 12 12 12 12 13 13 11 11 11 13 13 13 15 14 14 15 16 17 17 18 18 17 17 16 19 18 17 15 14 14 15 14 13
8 8 9 9 9 8 9 9 8 8 12 12 11 12 12 12 12 13 12 11 12 12 13 13 14 13 14 15 16 17 18 17 18 17 17 17 17 18 17 17 16 16 16 16 17
7 7 8 8 8 8 8 8 8 8 12 12 11 12 12 12 12 12 13 11 12 12 12 13 13 14 14 15 15 16 17 17 17 17 19 18 18 18 18 17 18 16 15 17 16
7 6 7 8 8 7 7 7 7 10 11 12 11 11 12 12 11 11 11 11 12 12 12 13 13 13 14 15 15 16 16 17 17 18 19 18 18 18 18 18 18 18 16 17 17
5 5 5 6 7 6 6 5 8 10 11 11 11 11 12 12 12 12 11 11 12 12 14 13 13 13 13 15 16 15 16 18 18 19 19 18 18 18 17 18 18 18 17 16 17
4 4 5 5 6 6 5 5 8 9 10 11 11 11 12 12 12 12 12 12 13 13 13 14 14 14 14 14 15 16 16 17 18 18 19 19 17 17 18 17 18 18 18 18 18
3 4 4 4 5 5 4 5 8 8 8 9 11 12 13 13 12 12 13 13 13 13 13 14 14 14 14 14 15 16 16 16 17 19 18 19 19 19 18 18 18 18 19 19 18
1 1 2 2 3 4 3 5 6 7 7 8 10 11 11 12 12 13 13 13 13 13 12 13 13 15 14 14 15 15 15 16 17 17 20 19 19 18 18 18 18 19 19 19 19
-2 -1 -1 1 1 1 3 4 5 5 6 7 8 9 10 11 11 11 12 12 12 12 12 13 13 13 14 15 15 15 15 16 17 17 18 18 19 19 18 18 18 18 19 18 19
-2 -2 -1 -1 -1 1 2 2 2 3 5 6 7 8 9 9 10 10 11 11 11 11 13 13 13 14 14 14 14 15 15 16 16 17 18 18 18 18 18 17 18 18 18 19 19
-4 -4 -3 -2 -2 -2 -0 -0 1 3 4 6 7 7 8 8 9 9 10 10 10 11 11 11 13 13 15 15 15 14 14 15 16 17 17 17 18 18 18 17 18 18 18 18 19
-6 -5 -4 -3 -2 -3 -3 -2 -1 1 2 4 5 6 7 8 8 9 9 10 10 10 10 11 12 13 13 14 15 15 15 14 15 16 16 17 17 17 17 17 17 18 18 18 19
-7 -7 -7 -4 -4 -3 -3 -2 -1 0 1 2 4 6 6 7 8 8 9 9 9 10 10 10 11 12 13 14 14 15 15 15 15 15 15 16 16 17 17 17 17 17 18 18 18
-8 -7 -7 -6 -4 -5 -3 -3 -3 -3 -1 0 1 2 3 5 6 7 7 8 9 9 10 10 11 12 12 14 14 14 14 15 15 15 15 15 16 16 17 17 17 17 17 18 18
Height
3167 3166 3165 3164 3162 3161 3160 3160 3159 3158 3157 3156 3155 3155 3154 3154 3155 3157 3160 3163 3165 3168 3173 3176 3178 3180 3181 3181 3183 3184 3184 3183 3184 3185 3186 3186 3187 3186 3187 3187 3188 3190 3193 3193 3194
3163 3162 3161 3161 3160 3159 3157 3156 3156 3155 3154 3153 3152 3152 3151 3151 3151 3152 3155 3158 3161 3165 3169 3173 3175 3178 3180 3181 3182 3184 3182 3183 3186 3186 3186 3186 3188 3187 3187 3188 3189 3190 3192 3193 3195
3160 3159 3158 3157 3156 3155 3154 3153 3152 3152 3151 3150 3149 3148 3148 3147 3149 3148 3149 3153 3156 3160 3164 3169 3172 3175 3178 3180 3182 3183 3183 3184 3185 3185 3185 3185 3187 3187 3189 3190 3190 3190 3191 3193 3196
3158 3157 3156 3155 3153 3152 3152 3150 3149 3148 3148 3147 3146 3145 3145 3145 3150 3144 3145 3147 3151 3154 3160 3165 3169 3173 3176 3178 3180 3181 3182 3183 3184 3183 3184 3186 3187 3188 3189 3192 3190 3191 3192 3194 3196
3154 3153 3152 3152 3151 3149 3148 3148 3146 3145 3145 3144 3143 3142 3142 3142 3143 3141 3142 3144 3147 3151 3156 3162 3166 3171 3173 3177 3179 3178 3181 3181 3181 3180 3183 3186 3187 3188 3189 3189 3190 3190 3192 3194 3196
3150 3149 3148 3148 3146 3146 3144 3144 3143 3142 3141 3140 3140 3139 3139 3138 3138 3138 3139 3141 3143 3147 3153 3157 3162 3168 3172 3175 3177 3178 3178 3179 3178 3179 3181 3184 3186 3186 3188 3188 3189 3190 3192 3193 3196
3145 3144 3143 3143 3142 3141 3140 3139 3139 3138 3138 3137 3136 3135 3135 3136 3134 3135 3135 3138 3141 3144 3148 3154 3159 3164 3169 3172 3174 3175 3177 3175 3177 3178 3180 3183 3184 3184 3186 3187 3188 3190 3191 3193 3195
3139 3139 3138 3137 3137 3137 3135 3135 3134 3134 3134 3134 3132 3132 3130 3130 3130 3131 3132 3134 3138 3141 3145 3149 3154 3159 3166 3170 3171 3173 3175 3174 3176 3176 3178 3181 3180 3182 3183 3185 3187 3188 3190 3191 3193
3136 3134 3132 3131 3130 3131 3130 3131 3130 3129 3129 3129 3129 3129 3128 3126 3126 3127 3129 3132 3134 3137 3142 3145 3149 3155 3162 3165 3168 3168 3167 3169 3173 3173 3175 3180 3180 3181 3181 3183 3185 3187 3188 3190 3191
3131 3129 3129 3126 3125 3125 3124 3125 3125 3125 3125 3124 3124 3127 3124 3124 3123 3124 3126 3129 3131 3134 3138 3142 3146 3152 3156 3159 3157 3161 3164 3164 3168 3171 3173 3177 3179 3179 3179 3182 3183 3184 3185 3187 3189
3127 3125 3124 3122 3121 3119 3121 3121 3122 3120 3119 3120 3120 3120 3120 3120 3120 3121 3122 3125 3128 3131 3134 3137 3142 3141 3150 3155 3158 3159 3161 3162 3165 3168 3172 3174 3176 3177 3176 3178 3181 3181 3182 3184 3186
3122 3121 3120 3117 3116 3115 3115 3115 3115 3115 3111 3112 3112 3111 3113 3114 3114 3116 3119 3122 3124 3128 3133 3137 3133 3142 3149 3153 3155 3156 3157 3159 3162 3166 3169 3171 3172 3174 3173 3173 3176 3177 3177 3180 3182
3117 3116 3115 3112 3110 3111 3111 3110 3109 3109 3107 3102 3103 3103 3104 3106 3106 3109 3111 3116 3120 3124 3126 3128 3133 3140 3144 3147 3150 3151 3153 3155 3157 3163 3165 3167 3168 3169 3170 3169 3170 3171 3173 3175 3176
3111 3110 3110 3109 3109 3105 3105 3106 3106 3106 3103 3099 3095 3096 3098 3100 3100 3101 3104 3111 3115 3118 3123 3126 3131 3133 3136 3139 3145 3146 3150 3153 3155 3159 3160 3163 3160 3161 3164 3164 3164 3164 3167 3169 3169
3104 3103 3104 3101 3101 3100 3103 3102 3103 3106 3102 3093 3090 3091 3093 3097 3096 3096 3098 3105 3109 3113 3118 3117 3121 3125 3128 3132 3140 3142 3148 3151 3152 3153 3156 3155 3160 3155 3158 3160 3160 3159 3160 3163 3165
3094 3093 3097 3096 3094 3095 3096 3098 3101 3106 3093 3089 3086 3086 3089 3090 3091 3090 3092 3101 3108 3110 3111 3114 3117 3120 3123 3130 3135 3142 3144 3146 3148 3148 3145 3146 3151 3149 3151 3154 3155 3157 3157 3158 3161
3085 3085 3084 3088 3089 3089 3091 3094 3100 3090 3083 3082 3083 3084 3086 3087 3087 3086 3088 3092 3097 3101 3102 3108 3109 3113 3117 3123 3130 3135 3139 3139 3141 3137 3134 3141 3144 3145 3147 3149 3151 3153 3152 3152 3156
3075 3074 3074 3077 3080 3082 3084 3089 3083 3074 3075 3076 3078 3081 3082 3083 3083 3083 3086 3088 3092 3095 3098 3100 3102 3104 3107 3112 3118 3123 3127 3125 3127 3127 3131 3137 3134 3137 3144 3146 3146 3147 3148 3147 3150
3065 3065 3065 3066 3070 3072 3077 3072 3064 3067 3072 3074 3075 3074 3076 3077 3078 3080 3080 3081 3084 3089 3092 3092 3094 3101 3103 3108 3113 3116 3117 3125 3123 3123 3123 3124 3132 3137 3138 3140 3141 3142 3141 3143 3145
3054 3054 3055 3057 3058 3061 3060 3051 3056 3062 3063 3067 3066 3066 3067 3070 3072 3073 3073 3074 3077 3082 3087 3089 3091 3093 3097 3104 3105 3105 3116 3120 3116 3112 3113 3119 3120 3124 3130 3133 3135 3136 3137 3138 3140
3045 3044 3044 3046 3046 3047 3039 3041 3050 3053 3057 3060 3059 3060 3060 3063 3066 3066 3067 3070 3071 3076 3081 3085 3089 3088 3094 3090 3094 3101 3102 3106 3112 3111 3107 3111 3113 3121 3126 3128 3130 3132 3133 3134 3135
3037 3039 3035 3036 3037 3035 3032 3037 3040 3042 3047 3050 3051 3052 3055 3058 3060 3062 3063 3066 3067 3071 3074 3079 3082 3083 3082 3085 3091 3094 3097 3100 3099 3103 3103 3106 3105 3114 3118 3122 3124 3127 3129 3131 3131
3031 3029 3027 3029 3028 3029 3030 3028 3028 3035 3035 3042 3041 3044 3050 3050 3055 3055 3057 3060 3063 3065 3067 3073 3074 3077 3080 3083 3084 3084 3089 3093 3097 3100 3091 3099 3102 3110 3113 3116 3117 3120 3123 3124 3124
3026 3025 3024 3021 3022 3022 3021 3019 3020 3027 3025 3030 3034 3036 3041 3042 3045 3048 3050 3054 3057 3059 3061 3064 3066 3067 3064 3068 3073 3077 3081 3084 3087 3084 3089 3085 3096 3102 3106 3110 3113 3116 3117 3118 3118
3017 3018 3016 3019 3019 3015 3015 3016 3017 3018 3019 3022 3024 3024 3030 3034 3037 3039 3045 3048 3051 3053 3056 3059 3060 3061 3063 3064 3065 3068 3070 3076 3075 3077 3077 3084 3087 3095 3099 3104 3107 3110 3112 3112 3113
3009 3011 3007 3007 3008 3009 3009 3011 3011 3013 3015 3014 3018 3020 3023 3025 3030 3033 3038 3041 3044 3049 3050 3053 3055 3058 3057 3059 3060 3060 3061 3065 3066 3070 3071 3078 3076 3087 3093 3097 3100 3102 3105 3105 3106
3003 3002 3000 2999 3000 3002 3004 3005 3004 3005 3007 3008 3009 3008 3012 3019 3022 3025 3029 3032 3037 3041 3044 3046 3050 3051 3050 3051 3051 3050 3051 3052 3054 3058 3062 3061 3068 3081 3082 3086 3089 3093 3097 3098 3100
Wind_Speed
12 12 13 13 12 11 10 11 12 12 12 13 13 14 18 22 24 25 25 29 25 26 23 20 16 11 6 5 3 5 3 5 4 0 5 5 9 9 10 11 13 15 10 18 19
14 13 13 13 13 12 12 11 11 12 12 12 12 11 14 17 22 23 23 21 23 22 25 22 19 13 9 8 8 7 4 3 1 1 6 10 10 7 8 11 13 16 12 16 18
14 14 13 13 13 13 13 13 12 11 12 13 13 11 11 13 14 18 21 19 21 21 24 23 20 16 13 11 11 7 7 2 4 3 7 12 10 8 9 9 10 11 12 17 18
15 15 14 13 13 13 14 14 14 12 11 12 13 12 11 11 4 11 16 19 22 24 25 27 26 22 18 16 12 11 9 7 6 7 9 13 11 10 8 6 10 9 9 14 18
16 15 15 14 14 14 14 14 15 15 12 11 13 13 11 12 7 16 13 17 22 25 28 30 29 24 20 14 14 15 10 10 8 7 10 13 12 9 11 8 7 9 10 13 14
18 18 17 17 16 16 15 16 16 15 15 13 12 14 13 12 9 15 17 17 21 25 27 32 31 26 16 17 14 9 8 10 6 9 11 13 13 12 13 10 8 10 11 14 15
19 19 19 20 20 19 18 17 16 16 15 15 14 14 13 5 10 15 16 19 19 23 27 31 31 27 25 16 17 13 7 6 8 12 10 12 13 14 14 12 11 10 14 15 15
20 20 20 21 22 21 22 20 17 17 15 15 15 16 14 12 13 14 17 19 19 22 27 31 32 27 20 17 12 14 12 11 14 14 13 13 9 15 15 15 14 13 13 15 15
18 19 21 22 22 21 21 21 20 18 17 15 16 17 17 7 5 13 15 18 18 22 26 29 32 28 21 22 20 19 18 15 14 17 15 15 6 12 16 16 18 16 16 14 16
18 17 18 21 21 23 21 20 20 20 19 17 18 17 13 9 7 8 13 18 18 19 24 28 30 25 26 30 30 24 21 18 18 20 16 17 10 9 11 18 19 21 19 19 17
18 19 18 20 20 20 21 20 20 22 19 19 15 15 19 20 16 12 13 18 20 17 21 27 32 36 32 31 28 22 20 18 21 16 18 17 17 14 15 13 19 22 26 24 22
19 17 18 20 21 20 19 19 21 22 26 22 22 23 22 25 25 22 19 19 23 24 22 25 37 31 29 29 30 25 24 22 20 17 17 16 19 17 18 18 18 20 25 28 25
21 19 17 19 21 21 18 19 19 21 23 25 21 22 22 23 20 24 28 23 24 26 29 30 28 29 30 31 32 31 27 25 22 17 17 16 20 19 21 20 21 21 21 25 30
24 21 18 19 20 20 17 17 16 16 14 15 15 13 15 14 14 16 31 28 25 30 29 28 31 31 30 33 33 34 30 25 24 20 21 20 20 17 18 21 23 25 23 22 30
28 25 19 19 20 19 18 17 13 11 6 7 11 14 13 14 12 13 23 29 28 25 32 32 33 32 34 35 34 37 28 27 24 25 26 18 18 19 14 19 22 22 23 23 22
30 29 23 22 21 20 16 14 12 6 10 7 12 15 9 8 11 14 20 30 23 25 29 31 25 30 33 32 32 30 27 26 25 27 28 32 23 24 19 19 16 19 24 24 24
33 30 27 21 22 19 17 15 9 17 6 11 13 16 12 10 11 12 23 34 31 31 33 27 32 24 27 32 33 32 30 21 20 20 16 29 31 28 16 16 14 14 22 16 23
31 31 28 24 24 22 20 20 20 10 26 11 13 17 16 13 10 16 19 31 33 27 26 30 31 36 24 40 39 41 41 27 24 16 17 32 24 33 26 24 22 21 15 16 16
29 29 29 26 25 26 25 32 23 25 19 22 16 18 20 18 10 15 23 28 32 32 32 30 35 26 34 30 40 41 46 41 34 30 27 29 26 31 26 23 19 18 15 14 15
30 29 29 26 26 29 33 47 28 23 18 20 26 20 24 24 17 18 21 23 28 31 29 22 20 32 27 28 36 40 41 41 43 25 22 29 27 22 21 20 19 19 15 15 19
29 27 28 23 23 31 40 38 33 33 25 24 28 24 21 19 20 19 16 17 22 27 28 29 20 18 32 40 40 38 36 44 41 42 19 18 30 27 23 20 15 15 16 14 16
25 20 21 19 22 24 31 28 32 27 33 31 28 28 29 22 20 20 18 15 16 23 28 29 23 25 24 32 35 38 39 38 37 38 40 42 34 28 28 24 25 24 18 17 19
26 25 22 22 21 24 24 24 26 27 30 32 38 31 28 27 29 28 25 21 15 14 21 28 32 23 26 26 27 39 45 43 43 40 42 30 34 29 17 16 12 19 16 19 21
22 16 15 15 16 19 18 22 23 23 27 30 30 30 32 33 29 19 20 20 18 20 19 16 29 36 29 33 36 36 39 43 44 45 40 50 34 35 33 29 25 21 20 24 21
18 17 25 14 11 14 14 16 16 17 21 20 32 28 31 32 31 31 24 19 13 16 19 24 24 23 30 28 27 33 39 41 46 50 48 39 46 41 38 31 28 26 23 26 25
18 14 19 25 26 27 20 19 14 16 19 19 22 25 31 31 30 27 27 26 25 20 23 21 23 25 31 30 31 36 37 41 44 46 49 49 52 38 40 39 36 30 29 28 26
19 22 22 20 23 22 18 16 13 11 18 17 15 13 13 21 24 25 24 20 19 24 24 23 25 22 27 28 25 31 39 41 42 46 45 48 47 45 48 38 35 36 34 35 29
Wind_Direction
293 294 299 307 307 299 291 289 294 299 296 287 280 267 263 254 250 248 244 239 243 247 245 243 252 258 270 270 233 194 196 140 87 125 161 168 153 153 160 156 157 170 163 184 171
293 294 297 300 304 311 306 295 291 297 302 296 290 275 266 258 251 250 247 237 237 237 238 236 245 250 249 247 265 214 262 107 67 312 196 173 162 150 157 165 171 174 183 190 183
291 289 292 296 299 301 305 308 304 296 297 302 298 292 273 269 262 255 250 237 231 227 225 224 232 231 228 233 237 242 240 293 300 322 184 183 173 162 165 178 180 173 181 184 188
291 289 289 288 292 297 301 303 307 309 297 296 304 302 290 271 258 252 236 228 222 215 215 217 222 225 228 232 236 244 266 266 288 260 184 187 183 179 165 174 178 177 183 186 185
283 285 284 284 286 292 297 300 301 304 304 291 293 302 304 278 248 245 237 224 216 215 210 215 219 223 227 235 235 252 268 276 283 233 185 187 196 180 181 179 178 175 178 173 184
280 279 281 282 281 282 286 293 298 300 300 300 290 291 297 301 255 238 242 230 221 210 207 208 214 218 232 231 230 257 262 276 259 187 182 181 194 202 198 186 191 184 176 172 180
291 280 274 274 275 279 280 283 288 291 293 294 296 291 292 308 264 237 237 228 228 217 206 205 209 210 223 232 232 240 263 284 191 187 192 177 200 203 205 192 202 193 186 182 177
300 295 284 275 271 271 275 279 280 281 283 287 288 290 291 283 258 239 234 225 224 219 211 205 206 209 220 221 216 225 232 214 194 204 222 193 193 197 217 212 211 203 199 192 196
297 296 294 289 281 273 269 272 275 277 277 277 279 282 294 266 269 239 232 221 215 217 213 210 205 206 214 215 219 216 219 207 194 205 222 196 202 199 218 213 216 212 212 211 207
295 295 293 288 285 282 276 273 272 272 272 274 271 273 251 249 284 254 223 218 213 214 209 206 198 203 206 209 212 208 218 196 201 210 209 211 207 182 216 212 213 218 220 221 222
294 295 294 290 290 282 279 280 279 280 265 263 253 239 264 269 264 250 224 212 214 211 198 197 199 207 209 210 213 216 210 207 201 211 205 216 219 238 241 221 218 220 223 224 222
294 291 289 288 287 285 281 276 276 279 279 266 262 258 254 257 255 238 227 205 203 201 194 197 212 211 208 214 216 223 216 213 200 215 215 227 233 233 242 249 236 224 223 224 221
296 291 285 282 281 282 282 276 277 282 286 285 263 250 248 247 249 235 224 206 208 204 207 207 216 206 212 214 217 219 221 213 209 225 229 237 245 245 242 242 239 234 229 223 222
296 293 283 276 278 277 276 279 280 291 295 271 261 224 201 212 243 226 212 211 209 212 210 217 209 210 213 213 213 221 218 221 217 214 225 228 248 236 242 244 237 244 246 232 219
295 290 280 264 266 269 272 270 268 288 283 227 197 188 205 213 233 238 217 201 211 208 207 213 209 211 213 215 213 221 220 225 228 221 233 201 237 245 231 238 242 243 244 239 233
288 287 284 269 264 262 259 253 250 232 240 230 192 192 198 212 221 236 209 200 209 216 216 215 218 217 218 215 213 217 230 224 229 229 231 232 219 238 230 242 251 246 237 243 233
283 281 275 264 251 252 244 229 218 229 232 215 202 197 198 204 203 206 194 193 200 200 211 213 218 217 211 212 211 209 210 206 220 225 238 221 231 233 233 239 254 260 240 234 238
277 274 269 262 247 242 226 211 227 238 213 197 200 205 208 206 215 204 200 205 211 213 214 211 214 212 210 210 206 210 208 216 214 220 220 230 233 235 241 258 260 261 234 224 230
275 271 269 256 242 237 222 214 227 231 236 220 217 217 223 224 210 208 214 216 216 211 217 215 228 220 217 211 207 211 218 221 237 228 242 228 226 245 242 249 253 245 243 234 221
277 266 265 260 243 234 227 231 235 234 218 216 220 224 227 223 223 221 216 221 217 217 217 224 233 219 216 211 214 216 219 219 229 238 223 237 237 227 229 237 242 248 262 235 229
286 282 270 261 239 231 227 232 236 231 224 225 224 223 223 226 224 220 225 212 206 212 215 217 222 218 214 211 209 211 221 221 228 228 243 234 236 232 237 235 242 246 259 249 259
294 291 267 251 239 236 237 236 234 232 231 230 230 227 228 223 224 217 216 203 199 204 210 210 218 230 219 217 217 217 217 215 221 228 236 245 247 238 240 249 249 250 246 250 258
306 301 289 260 248 242 249 245 241 237 231 233 230 228 228 229 231 232 227 218 228 210 207 213 220 217 228 219 214 223 222 223 226 233 230 226 235 234 229 228 239 227 240 265 261
296 304 300 279 254 250 252 254 251 241 234 227 231 230 231 226 222 227 223 222 230 216 202 198 218 220 221 222 220 217 222 226 228 232 234 241 240 234 234 238 242 247 247 260 262
277 277 269 265 257 252 254 260 257 243 239 229 229 221 221 222 221 223 222 206 219 208 212 211 223 224 231 240 234 231 226 226 230 234 237 239 237 234 234 238 243 248 255 264 260
274 265 259 265 270 267 266 261 261 254 244 228 228 228 222 223 223 227 228 228 230 224 222 216 230 234 241 239 243 246 238 234 233 235 238 239 242 236 241 245 245 246 250 254 254
283 268 261 254 257 259 255 256 243 242 247 245 248 246 228 219 225 224 223 218 220 225 224 216 223 224 239 236 244 245 241 240 238 234 234 235 237 237 236 245 244 242 242 252 257